Early, TX

6:09 PM CST on February 25, 2017 (GMT -0600)
Brownwood Regional

Weather History for KBWD - November, 2011

Change the Weather History Date:

Monday, November 7, 2011

  Actual Average (KABI) Record (KABI)
Temperature  
Mean Temperature 72 °F -  
Max Temperature 75 °F 64 °F 89 °F (1963)
Min Temperature 68 °F 45 °F 28 °F (1959)
Cooling Degree Days 6    
Growing Degree Days 22 (Base 50)    
Moisture  
Dew Point 64 °F    
Average Humidity 78    
Maximum Humidity 88    
Minimum Humidity 65    
Precipitation  
Precipitation 0.00 in - - ()
Sea Level Pressure  
Sea Level Pressure 29.94 in    
Wind  
Wind Speed 13 mph (SSE)    
Max Wind Speed 21 mph    
Max Gust Speed 29 mph    
Visibility 10 miles    
Events      
Averages and records for this station are not official NWS values.
T = Trace of Precipitation, MM = Missing Value Source: NWS Daily Summary

Daily Weather History Graph

Daily Weather History Graph

Search for Another Location

Airport or City:

Trip Planner

Search our weather history database for the weather conditions in past years. The results will help you decide how hot, cold, wet, or windy it might be!

Date:

Astronomy

Nov. 07, 2011 Rise Set
Actual Time 6:56 AM CST 5:41 PM CST
Civil Twilight 6:31 AM CST 6:07 PM CST
Nautical Twilight 6:02 AM CST 6:36 PM CST
Astronomical Twilight 5:33 AM CST 7:04 PM CST
Moon 3:47 PM CST (11/7) 4:08 AM CST (11/7)
Length of Visible Light 11h 35m
Length of Day
10h 44m
Waxing Gibbous, 92% of the Moon is Illuminated
Nov 7
Waxing Gibbous
Nov 10
Full
Nov 18
Last Quarter
Nov 25
New
Dec 2
First Quarter

Hourly Weather History & Observations

Time (CST) Temp. Dew Point Humidity Pressure Visibility Wind Dir Wind Speed Gust Speed Precip Events Conditions
12:15 AM 69.8 °F 64.4 °F 83% 29.99 in 10.0 mi SSE 9.2 mph - N/A   Mostly Cloudy
12:35 AM 69.8 °F 64.4 °F 83% 29.99 in 10.0 mi SSE 9.2 mph - N/A   Mostly Cloudy
12:55 AM 69.8 °F 64.4 °F 83% 29.99 in 10.0 mi SSE 9.2 mph - N/A   Partly Cloudy
1:15 AM 69.8 °F 64.4 °F 83% 29.99 in 10.0 mi SSE 9.2 mph 16.1 mph N/A   Scattered Clouds
1:35 AM 69.8 °F 64.4 °F 83% 29.98 in 10.0 mi SSE 11.5 mph 16.1 mph N/A   Mostly Cloudy
1:55 AM 69.8 °F 64.4 °F 83% 29.98 in 10.0 mi SE 9.2 mph - N/A   Overcast
2:15 AM 69.8 °F 64.4 °F 83% 29.98 in 10.0 mi SSE 9.2 mph - N/A   Overcast
2:35 AM 69.8 °F 64.4 °F 83% 29.98 in 10.0 mi SSE 11.5 mph 17.3 mph N/A   Overcast
2:55 AM 69.8 °F 64.4 °F 83% 29.98 in 10.0 mi SSE 11.5 mph 16.1 mph N/A   Overcast
3:15 AM 69.8 °F 64.4 °F 83% 29.98 in 10.0 mi SSE 11.5 mph 18.4 mph N/A   Overcast
3:35 AM 69.8 °F 64.4 °F 83% 29.97 in 10.0 mi SSE 11.5 mph - N/A   Overcast
3:55 AM 69.8 °F 64.4 °F 83% 29.98 in 10.0 mi SSE 10.4 mph - N/A   Overcast
4:15 AM 69.8 °F 64.4 °F 83% 29.98 in 10.0 mi SSE 12.7 mph 18.4 mph N/A   Overcast
4:35 AM 69.8 °F 64.4 °F 83% 29.98 in 10.0 mi SSE 12.7 mph 18.4 mph N/A   Overcast
5:15 AM 68.0 °F 64.4 °F 88% 29.97 in 10.0 mi SE 11.5 mph - N/A   Overcast
5:35 AM 68.0 °F 64.4 °F 88% 29.96 in 10.0 mi SE 13.8 mph 19.6 mph N/A   Overcast
5:55 AM 68.0 °F 64.4 °F 88% 29.97 in 10.0 mi SE 12.7 mph 19.6 mph N/A   Overcast
6:15 AM 68.0 °F 64.4 °F 88% 29.97 in 10.0 mi SSE 11.5 mph 16.1 mph N/A   Mostly Cloudy
6:35 AM 68.0 °F 64.4 °F 88% 29.97 in 10.0 mi SSE 11.5 mph - N/A   Overcast
6:55 AM 68.0 °F 64.4 °F 88% 29.97 in 10.0 mi SE 12.7 mph 17.3 mph N/A   Overcast
7:15 AM 68.0 °F 64.4 °F 88% 29.98 in 10.0 mi SSE 11.5 mph - N/A   Mostly Cloudy
7:35 AM 68.0 °F 64.4 °F 88% 29.97 in 10.0 mi SE 16.1 mph 19.6 mph N/A   Scattered Clouds
7:55 AM 68.0 °F 64.4 °F 88% 29.98 in 10.0 mi SSE 13.8 mph 19.6 mph N/A   Clear
8:15 AM 68.0 °F 64.4 °F 88% 29.98 in 10.0 mi SSE 17.3 mph 24.2 mph N/A   Partly Cloudy
8:35 AM 69.8 °F 64.4 °F 83% 29.99 in 10.0 mi SSE 16.1 mph 25.3 mph N/A   Mostly Cloudy
8:55 AM 69.8 °F 64.4 °F 83% 30.00 in 10.0 mi SE 12.7 mph 23.0 mph N/A   Mostly Cloudy
9:15 AM 71.6 °F 64.4 °F 78% 30.00 in 10.0 mi SSE 16.1 mph 27.6 mph N/A   Overcast
9:35 AM 71.6 °F 64.4 °F 78% 29.99 in 10.0 mi SE 12.7 mph 24.2 mph N/A   Overcast
9:55 AM 71.6 °F 64.4 °F 78% 29.98 in 10.0 mi SSE 20.7 mph - N/A   Overcast
10:15 AM 71.6 °F 64.4 °F 78% 29.98 in 10.0 mi SE 17.3 mph 26.5 mph N/A   Overcast
10:35 AM 73.4 °F 64.4 °F 73% 29.98 in 10.0 mi SSE 17.3 mph 26.5 mph N/A   Mostly Cloudy
10:55 AM 73.4 °F 64.4 °F 73% 29.98 in 10.0 mi SSE 20.7 mph 27.6 mph N/A   Overcast
11:15 AM 73.4 °F 64.4 °F 73% 29.97 in 10.0 mi SSE 18.4 mph 26.5 mph N/A   Overcast
11:35 AM 73.4 °F 64.4 °F 73% 29.96 in 10.0 mi SE 20.7 mph 25.3 mph N/A   Overcast
11:55 AM 73.4 °F 64.4 °F 73% 29.96 in 10.0 mi SSE 18.4 mph 27.6 mph N/A   Mostly Cloudy
12:15 PM 73.4 °F 64.4 °F 73% 29.94 in 10.0 mi South 19.6 mph 25.3 mph N/A   Mostly Cloudy
12:35 PM 75.2 °F 64.4 °F 69% 29.93 in 10.0 mi SSE 20.7 mph 28.8 mph N/A   Overcast
12:55 PM 75.2 °F 64.4 °F 69% 29.92 in 10.0 mi SSE 19.6 mph 25.3 mph N/A   Mostly Cloudy
1:15 PM 75.2 °F 64.4 °F 69% 29.92 in 10.0 mi SSE 17.3 mph - N/A   Overcast
1:35 PM 75.2 °F 64.4 °F 69% 29.90 in 10.0 mi SSE 19.6 mph 28.8 mph N/A   Mostly Cloudy
2:15 PM 75.2 °F 64.4 °F 69% 29.89 in 10.0 mi SSE 18.4 mph 25.3 mph N/A   Mostly Cloudy
2:35 PM 75.2 °F 64.4 °F 69% 29.88 in 10.0 mi SSE 19.6 mph 25.3 mph N/A   Mostly Cloudy
2:55 PM 75.2 °F 64.4 °F 69% 29.87 in 10.0 mi SSE 15.0 mph 21.9 mph N/A   Mostly Cloudy
3:15 PM 75.2 °F 64.4 °F 69% 29.87 in 10.0 mi SE 15.0 mph 20.7 mph N/A   Mostly Cloudy
3:55 PM 75.2 °F 64.4 °F 69% 29.86 in 10.0 mi SE 19.6 mph 24.2 mph N/A   Mostly Cloudy
4:15 PM 75.2 °F 64.4 °F 69% 29.87 in 10.0 mi SSE 15.0 mph 21.9 mph N/A   Mostly Cloudy
4:35 PM 75.2 °F 64.4 °F 69% 29.87 in 10.0 mi SSE 16.1 mph 23.0 mph N/A   Mostly Cloudy
4:55 PM 75.2 °F 62.6 °F 65% 29.86 in 10.0 mi SE 15.0 mph 24.2 mph N/A   Mostly Cloudy
5:15 PM 75.2 °F 62.6 °F 65% 29.86 in 10.0 mi SSE 16.1 mph 24.2 mph N/A   Mostly Cloudy
5:55 PM 73.4 °F 62.6 °F 69% 29.86 in 10.0 mi SSE 15.0 mph 20.7 mph N/A   Mostly Cloudy
6:15 PM 73.4 °F 62.6 °F 69% 29.87 in 10.0 mi SSE 15.0 mph 19.6 mph N/A   Mostly Cloudy
6:35 PM 71.6 °F 64.4 °F 78% 29.87 in 10.0 mi SSE 12.7 mph 17.3 mph N/A   Partly Cloudy
6:55 PM 71.6 °F 64.4 °F 78% 29.87 in 10.0 mi SSE 12.7 mph 20.7 mph N/A   Clear
7:15 PM 69.8 °F 64.4 °F 83% 29.88 in 10.0 mi SSE 9.2 mph 16.1 mph N/A   Clear
7:35 PM 69.8 °F 64.4 °F 83% 29.88 in 10.0 mi SSE 10.4 mph - N/A   Scattered Clouds
8:15 PM 71.6 °F 64.4 °F 78% 29.89 in 10.0 mi SSE 13.8 mph 20.7 mph N/A   Overcast
8:35 PM 71.6 °F 64.4 °F 78% 29.88 in 10.0 mi SSE 16.1 mph 19.6 mph N/A   Mostly Cloudy
8:55 PM 71.6 °F 64.4 °F 78% 29.89 in 10.0 mi SSE 15.0 mph 20.7 mph N/A   Overcast
9:15 PM 71.6 °F 64.4 °F 78% 29.88 in 10.0 mi SSE 12.7 mph - N/A   Overcast
9:55 PM 69.8 °F 64.4 °F 83% 29.88 in 10.0 mi SSE 17.3 mph - N/A   Scattered Clouds
10:15 PM 69.8 °F 64.4 °F 83% 29.87 in 10.0 mi SSE 15.0 mph 21.9 mph N/A   Clear
10:35 PM 69.8 °F 62.6 °F 78% 29.86 in 10.0 mi SSE 18.4 mph 23.0 mph N/A   Scattered Clouds
10:55 PM 69.8 °F 62.6 °F 78% 29.85 in 10.0 mi SSE 18.4 mph 24.2 mph N/A   Mostly Cloudy
11:15 PM 69.8 °F 62.6 °F 78% 29.85 in 10.0 mi SSE 17.3 mph 23.0 mph N/A   Mostly Cloudy
11:35 PM 69.8 °F 62.6 °F 78% 29.85 in 10.0 mi SSE 19.6 mph 24.2 mph N/A   Overcast
11:55 PM 71.6 °F 62.6 °F 73% 29.85 in 10.0 mi SSE 19.6 mph 25.3 mph N/A   Overcast